H1 CPF 2 NER 2025 10 13 9 286 01 glonass140 H2 1903001 9140 44299 2025 10 13 0 0 0 2025 10 16 23 45 0 900 1 1 0 0 0 1 H9 10 0 60961 0.00000 0 18126142.256 7526147.342 -16275087.908 10 0 60961 900.00000 0 15982452.489 7541618.643 -18374811.964 10 0 60961 1800.00000 0 13610209.319 7739427.924 -20117062.568 10 0 60961 2700.00000 0 11070837.841 8142546.193 -21467861.918 10 0 60961 3600.00000 0 8430590.500 8762438.400 -22400848.824 10 0 60961 4500.00000 0 5757983.887 9598421.977 -22897799.027 10 0 60961 5400.00000 0 3121149.971 10637553.150 -22948986.060 10 0 60961 6300.00000 0 585212.146 11855047.004 -22553375.291 10 0 60961 7200.00000 0 -1790204.528 13215214.562 -21718647.096 10 0 60961 8100.00000 0 -3953225.153 14672878.215 -20461048.489 10 0 60961 9000.00000 0 -5861645.243 16175206.377 -18805075.932 10 0 60961 9900.00000 0 -7484439.666 17663890.327 -16782995.420 10 0 60961 10800.00000 0 -8802797.998 19077571.536 -14434209.267 10 0 60961 11700.00000 0 -9810644.040 20354416.943 -11804482.097 10 0 60961 12600.00000 0 -10514619.139 21434733.246 -8945041.561 10 0 60961 13500.00000 0 -10933531.725 22263509.493 -5911571.889 10 0 60961 14400.00000 0 -11097298.144 22792780.302 -2763120.630 10 0 60961 15300.00000 0 -11045421.458 22983709.666 439059.189 10 0 60961 16200.00000 0 -10825074.417 22808307.308 3632708.014 10 0 60961 17100.00000 0 -10488869.438 22250705.268 6755775.626 10 0 60961 18000.00000 0 -10092411.451 21307941.216 9747629.474 10 0 60961 18900.00000 0 -9691738.277 19990215.994 12550231.572 10 0 60961 19800.00000 0 -9340757.518 18320615.087 15109260.955 10 0 60961 20700.00000 0 -9088788.564 16334306.309 17375160.157 10 0 60961 21600.00000 0 -8978313.361 14077247.729 19304086.037 10 0 60961 22500.00000 0 -9043030.380 11604460.050 20858747.524 10 0 60961 23400.00000 0 -9306293.068 8977935.424 22009115.209 10 0 60961 24300.00000 0 -9779997.773 6264269.317 22732990.415 10 0 60961 25200.00000 0 -10463967.265 3532112.946 23016423.989 10 0 60961 26100.00000 0 -11345855.320 849550.897 22853977.867 10 0 60961 27000.00000 0 -12401576.334 -1718488.854 22248825.204 10 0 60961 27900.00000 0 -13596242.326 -4112686.856 21212687.580 10 0 60961 28800.00000 0 -14885568.781 -6281546.080 19765610.586 10 0 60961 29700.00000 0 -16217691.536 -8183277.722 17935581.731 10 0 60961 30600.00000 0 -17535319.851 -9787282.100 15757997.341 10 0 60961 31500.00000 0 -18778136.774 -11075164.347 13274987.779 10 0 60961 32400.00000 0 -19885347.380 -12041243.568 10534612.837 10 0 60961 33300.00000 0 -20798268.940 -12692534.858 7589941.704 10 0 60961 34200.00000 0 -21462854.891 -13048205.338 4498034.237 10 0 60961 35100.00000 0 -21832046.733 -13138527.165 1318842.382 10 0 60961 36000.00000 0 -21867854.533 -13003371.459 -1885947.624 10 0 60961 36900.00000 0 -21543077.851 -12690306.572 -5054110.047 10 0 60961 37800.00000 0 -20842593.261 -12252380.753 -8124088.322 10 0 60961 38700.00000 0 -19764152.896 -11745683.014 -11036193.866 10 0 60961 39600.00000 0 -18318658.802 -11226785.499 -13733771.194 10 0 60961 40500.00000 0 -16529899.660 -10750175.918 -16164306.178 10 0 60961 41400.00000 0 -14433759.262 -10365789.234 -18280455.213 10 0 60961 42300.00000 0 -12076928.372 -10116743.811 -20040974.599 10 0 60961 43200.00000 0 -9515172.608 -10037378.640 -21411531.488 10 0 60961 44100.00000 0 -6811227.706 -10151675.604 -22365380.104 10 0 60961 45000.00000 0 -4032409.394 -10472134.466 -22883889.582 10 0 60961 45900.00000 0 -1248037.090 -10999149.044 -22956912.827 10 0 60961 46800.00000 0 1473221.458 -11720911.841 -22582988.849 10 0 60961 47700.00000 0 4065974.034 -12613851.901 -21769374.376 10 0 60961 48600.00000 0 6470587.083 -13643588.004 -20531903.882 10 0 60961 49500.00000 0 8635424.798 -14766357.375 -18894680.577 10 0 60961 50400.00000 0 10518750.987 -15930859.751 -16889604.305 10 0 60961 51300.00000 0 12090214.895 -17080438.890 -14555745.568 10 0 60961 52200.00000 0 13331859.657 -18155509.129 -11938578.091 10 0 60961 53100.00000 0 14238612.299 -19096124.048 -9089085.271 10 0 60961 54000.00000 0 14818236.224 -19844578.133 -6062758.510 10 0 60961 54900.00000 0 15090749.922 -20347930.975 -2918507.697 10 0 60961 55800.00000 0 15087338.319 -20560346.769 282494.014 10 0 60961 56700.00000 0 14848804.640 -20445149.936 3478007.723 10 0 60961 57600.00000 0 14423630.089 -19976509.848 6605944.386 10 0 60961 58500.00000 0 13865724.972 -19140683.586 9605574.123 10 0 60961 59400.00000 0 13231967.708 -17936764.563 12418705.209 10 0 60961 60300.00000 0 12579636.619 -16376905.804 14990809.764 10 0 60961 61200.00000 0 11963843.451 -14486008.890 17272074.449 10 0 60961 62100.00000 0 11435076.930 -12300891.888 19218356.441 10 0 60961 63000.00000 0 11036959.479 -9868971.189 20792027.114 10 0 60961 63900.00000 0 10804310.801 -7246512.158 21962688.231 10 0 60961 64800.00000 0 10761598.896 -4496521.006 22707748.134 10 0 60961 65700.00000 0 10921842.584 -1686364.685 23012848.073 10 0 60961 66600.00000 0 11286010.804 1114783.497 22872131.559 10 0 60961 67500.00000 0 11842943.328 3838568.073 22288352.404 10 0 60961 68400.00000 0 12569795.985 6420038.351 21272819.844 10 0 60961 69300.00000 0 13432991.953 8800092.556 19845181.890 10 0 60961 70200.00000 0 14389639.793 10927679.596 18033050.749 10 0 60961 71100.00000 0 15389359.672 12761668.673 15871476.836 10 0 60961 72000.00000 0 16376442.210 14272310.335 13402280.576 10 0 60961 72900.00000 0 17292250.404 15442229.222 10673253.767 10 0 60961 73800.00000 0 18077764.693 16266907.811 7737244.737 10 0 60961 74700.00000 0 18676164.861 16754641.366 4651143.983 10 0 60961 75600.00000 0 19035340.448 16925966.147 1474788.990 10 0 60961 76500.00000 0 19110223.814 16812584.810 -1730191.172 10 0 60961 77400.00000 0 18864846.933 16455834.052 -4901569.346 10 0 60961 78300.00000 0 18274034.155 15904758.870 -7977728.790 10 0 60961 79200.00000 0 17324658.220 15213874.632 -10898862.955 10 0 60961 80100.00000 0 16016404.856 14440711.442 -13608142.762 10 0 60961 81000.00000 0 14362011.912 13643244.742 -16052828.102 10 0 60961 81900.00000 0 12386971.052 12877321.072 -18185301.314 10 0 60961 82800.00000 0 10128702.584 12194188.261 -19964001.868 10 0 60961 83700.00000 0 7635236.404 11638235.058 -21354243.474 10 0 60961 84600.00000 0 4963452.822 11245036.375 -22328897.186 10 0 60961 85500.00000 0 2176955.676 11039787.409 -22868926.764 10 0 60962 0.00000 0 -656334.004 11036193.423 -22963765.460 10 0 60962 900.00000 0 -3466765.525 11235862.662 -22611526.606 10 0 60962 1800.00000 0 -6185615.888 11628228.494 -21819043.530 10 0 60962 2700.00000 0 -8747711.467 12191004.340 -20601738.008 10 0 60962 3600.00000 0 -11093901.083 12891152.389 -18983319.390 10 0 60962 4500.00000 0 -13173279.018 13686325.090 -16995320.307 10 0 60962 5400.00000 0 -14945065.254 14526718.251 -14676477.997 10 0 60962 6300.00000 0 -16380064.908 15357256.998 -12071973.501 10 0 60962 7200.00000 0 -17461646.611 16120021.517 -9232543.926 10 0 60962 8100.00000 0 -18186199.997 16756809.297 -6213485.630 10 0 60962 9000.00000 0 -18563054.555 17211724.687 -3073568.514 10 0 60962 9900.00000 0 -18613864.967 17433685.503 126116.556 10 0 60962 10800.00000 0 -18371490.695 17378740.037 3323353.783 10 0 60962 11700.00000 0 -17878418.957 17012096.082 6456017.804 10 0 60962 12600.00000 0 -17184799.401 16309776.000 9463283.930 10 0 60962 13500.00000 0 -16346174.968 15259827.973 12286809.231 10 0 60962 14400.00000 0 -15421005.829 13863042.505 14871861.420 10 0 60962 15300.00000 0 -14468091.587 12133144.229 17168373.729 10 0 60962 16200.00000 0 -13544000.543 10096451.164 19131905.988 10 0 60962 17100.00000 0 -12700614.037 7791015.690 20724494.164 10 0 60962 18000.00000 0 -11982888.414 5265283.033 21915373.116 10 0 60962 18900.00000 0 -11426927.677 2576322.682 22681559.849 10 0 60962 19800.00000 0 -11058446.522 -212294.435 23008287.326 10 0 60962 20700.00000 0 -10891687.054 -3032885.942 22889281.569 10 0 60962 21600.00000 0 -10928833.587 -5816217.396 22326877.582 10 0 60962 22500.00000 0 -11159949.265 -8494126.619 21331972.359 10 0 60962 23400.00000 0 -11563436.834 -11002105.846 19923815.997 10 0 60962 24300.00000 0 -12107004.233 -13281736.401 18129644.611 10 0 60962 25200.00000 0 -12749094.932 -15282876.470 15984161.477 10 0 60962 26100.00000 0 -13440723.634 -16965512.446 13528875.451 10 0 60962 27000.00000 0 -14127641.076 -18301197.832 10811308.321 10 0 60962 27900.00000 0 -14752737.752 -19274020.583 7884085.231 10 0 60962 28800.00000 0 -15258586.097 -19881058.831 4803924.718 10 0 60962 29700.00000 0 -15590014.433 -20132306.012 1630546.988 10 0 60962 30600.00000 0 -15696604.265 -20050068.512 -1574479.051 10 0 60962 31500.00000 0 -15535005.069 -19667860.741 -4748927.965 10 0 60962 32400.00000 0 -15070968.096 -19028843.930 -7831126.079 10 0 60962 33300.00000 0 -14281012.082 -18183874.132 -10761152.203 10 0 60962 34200.00000 0 -13153648.998 -17189241.601 -13482006.967 10 0 60962 35100.00000 0 -11690116.298 -16104196.870 -15940727.484 10 0 60962 36000.00000 0 -9904582.777 -14988368.062 -18089425.039 10 0 60962 36900.00000 0 -7823817.355 -13899178.704 -19886224.937 10 0 60962 37800.00000 0 -5486332.776 -12889375.426 -21296089.651 10 0 60962 38700.00000 0 -2941038.314 -12004770.269 -22291508.732 10 0 60962 39600.00000 0 -245456.463 -11282293.332 -22853041.590 10 0 60962 40500.00000 0 2536423.056 -10748438.270 -22969702.205 10 0 60962 41400.00000 0 5336563.249 -10418166.547 -22639177.960 10 0 60962 42300.00000 0 8085473.324 -10294316.838 -21867878.042 10 0 60962 43200.00000 0 10714867.898 -10367544.557 -20670810.227 10 0 60962 44100.00000 0 13160281.211 -10616793.898 -19071288.256 10 0 60962 45000.00000 0 15363527.377 -11010282.169 -17100475.404 10 0 60962 45900.00000 0 17274904.107 -11506954.302 -14796773.155 10 0 60962 46800.00000 0 18855048.118 -12058345.366 -12205067.054 10 0 60962 47700.00000 0 20076365.072 -12610771.487 -9375844.815 10 0 60962 48600.00000 0 20923974.953 -13107755.516 -6364204.434 10 0 60962 49500.00000 0 21396134.326 -13492583.787 -3228772.339 10 0 60962 50400.00000 0 21504119.142 -13710884.762 -30553.590 10 0 60962 51300.00000 0 21271574.662 -13713119.584 3168262.593 10 0 60962 52200.00000 0 20733361.623 -13456878.451 6305517.806 10 0 60962 53100.00000 0 19933949.045 -12908885.241 9320295.528 10 0 60962 54000.00000 0 18925422.989 -12046625.467 12154104.227 10 0 60962 54900.00000 0 17765196.490 -10859528.803 14752009.358 10 0 60962 55800.00000 0 16513518.043 -9349656.456 17063692.413 10 0 60962 56700.00000 0 15230883.903 -7531864.551 19044417.074 10 0 60962 57600.00000 0 13975462.918 -5433436.687 20655884.667 10 0 60962 58500.00000 0 12800641.483 -3093200.867 21866963.475 10 0 60962 59400.00000 0 11752790.648 -560167.250 22654279.110 10 0 60962 60300.00000 0 10869347.690 2108257.285 23002655.839 10 0 60962 61200.00000 0 10177291.126 4848404.512 22905401.461 10 0 60962 62100.00000 0 9692071.613 7592742.853 22364431.154 10 0 60962 63000.00000 0 9417042.310 10272440.064 21390228.402 10 0 60962 63900.00000 0 9343411.631 12819985.976 20001643.895 10 0 60962 64800.00000 0 9450719.844 15171768.241 18225536.000 10 0 60962 65700.00000 0 9707819.401 17270495.776 16096259.039 10 0 60962 66600.00000 0 10074318.072 19067370.561 13655008.352 10 0 60962 67500.00000 0 10502424.737 20523918.563 10949033.660 10 0 60962 68400.00000 0 10939120.832 21613404.236 8030734.755 10 0 60962 69300.00000 0 11328566.581 22321769.837 4956655.937 10 0 60962 70200.00000 0 11614641.087 22648060.546 1786397.780 10 0 60962 71100.00000 0 11743509.256 22604317.189 -1418533.377 10 0 60962 72000.00000 0 11666106.895 22214940.643 -4595916.221 10 0 60962 72900.00000 0 11340438.471 21515554.355 -7684022.485 10 0 60962 73800.00000 0 10733589.352 20551412.228 -10622818.544 10 0 60962 74700.00000 0 9823366.121 19375418.614 -13355136.778 10 0 60962 75600.00000 0 8599494.035 18045843.586 -15827793.366 10 0 60962 76500.00000 0 7064319.073 16623829.609 -17992630.162 10 0 60962 77400.00000 0 5232982.976 15170794.760 -19807459.721 10 0 60962 78300.00000 0 3133061.820 13745842.090 -21236894.487 10 0 60962 79200.00000 0 803681.355 12403284.483 -22253043.505 10 0 60962 80100.00000 0 -1705855.559 11190389.533 -22836062.606 10 0 60962 81000.00000 0 -4337873.406 10145439.623 -22974547.006 10 0 60962 81900.00000 0 -7028486.070 9296188.971 -22665758.342 10 0 60962 82800.00000 0 -9710026.989 8658782.680 -21915681.434 10 0 60962 83700.00000 0 -12313646.450 8237183.076 -20738909.436 10 0 60962 84600.00000 0 -14771967.918 8023127.187 -19158359.433 10 0 60962 85500.00000 0 -17021692.558 7996616.564 -17204823.889 10 0 60963 0.00000 0 -19006043.055 8126918.018 -14916366.948 10 0 60963 900.00000 0 -20676945.647 8374032.128 -12337576.175 10 0 60963 1800.00000 0 -21996856.649 8690566.172 -9518687.846 10 0 60963 2700.00000 0 -22940160.927 9023931.285 -6514599.250 10 0 60963 3600.00000 0 -23494081.652 9318769.477 -3383790.973 10 0 60963 4500.00000 0 -23659065.244 9519506.575 -187179.881 10 0 60963 5400.00000 0 -23448626.447 9572921.885 3013073.753 10 0 60963 6300.00000 0 -22888661.539 9430624.863 6154780.852 10 0 60963 7200.00000 0 -22016260.215 9051333.275 9176935.429 10 0 60963 8100.00000 0 -20878067.669 8402856.096 12020899.692 10 0 60963 9000.00000 0 -19528267.221 7463697.173 14631539.133 10 0 60963 9900.00000 0 -18026269.360 6224211.988 16958285.696 10 0 60963 10800.00000 0 -16434204.955 4687268.882 18956108.958 10 0 60963 11700.00000 0 -14814327.955 2868386.937 20586377.415 10 0 60963 12600.00000 0 -13226436.135 795344.663 21817594.306 10 0 60963 13500.00000 0 -11725417.032 -1492724.531 22625995.053 10 0 60963 14400.00000 0 -10359020.524 -3946712.970 22995996.067 10 0 60963 15300.00000 0 -9165949.687 -6509338.860 22920487.398 10 0 60963 16200.00000 0 -8174348.142 -9117292.368 22400964.497 10 0 60963 17100.00000 0 -7400745.564 -11703639.931 21447497.067 10 0 60963 18000.00000 0 -6849504.110 -14200388.619 20078535.775 10 0 60963 18900.00000 0 -6512787.898 -16541105.735 18320560.259 10 0 60963 19800.00000 0 -6371056.181 -18663486.485 16207574.588 10 0 60963 20700.00000 0 -6394059.258 -20511764.332 13780458.981 10 0 60963 21600.00000 0 -6542295.392 -22038864.852 11086189.216 10 0 60963 22500.00000 0 -6768867.787 -23208214.048 8176937.617 10 0 60963 23400.00000 0 -7021663.841 -23995126.028 5109071.948 10 0 60963 24300.00000 0 -7245765.222 -24387712.048 1942070.692 10 0 60963 25200.00000 0 -7385987.236 -24387272.477 -1262624.985 10 0 60963 26100.00000 0 -7389440.186 -24008154.805 -4442800.603 10 0 60963 27000.00000 0 -7208004.007 -23277082.851 -7536676.115 10 0 60963 27900.00000 0 -6800610.715 -22231984.759 -10484108.367 10 0 60963 28800.00000 0 -6135237.073 -20920368.549 -13227764.413 10 0 60963 29700.00000 0 -5190521.662 -19397312.948 -15714242.388 10 0 60963 30600.00000 0 -3956936.304 -17723157.740 -17895117.484 10 0 60963 31500.00000 0 -2437460.450 -15960990.636 -19727892.025 10 0 60963 32400.00000 0 -647728.058 -14174036.332 -21176830.599 10 0 60963 33300.00000 0 1384361.248 -12423057.577 -22213663.470 10 0 60963 34200.00000 0 3619552.277 -10763877.661 -22818144.109 10 0 60963 35100.00000 0 6008629.124 -9245128.479 -22978449.645 10 0 60963 36000.00000 0 8494237.756 -7906318.802 -22691416.108 10 0 60963 36900.00000 0 11013061.076 -6776303.835 -21962603.576 10 0 60963 37800.00000 0 13498256.260 -5872220.077 -20806189.750 10 0 60963 38700.00000 0 15882052.885 -5198929.761 -19244693.772 10 0 60963 39600.00000 0 18098403.382 -4748997.566 -17308535.608 10 0 60963 40500.00000 0 20085574.961 -4503199.610 -15035439.525 10 0 60963 41400.00000 0 21788574.500 -4431542.120 -12469693.444 10 0 60963 42300.00000 0 23161304.763 -4494745.457 -9661278.947 10 0 60963 43200.00000 0 24168361.680 -4646129.332 -6664889.415 10 0 60963 44100.00000 0 24786397.645 -4833817.991 -3538856.128 10 0 60963 45000.00000 0 25004994.125 -5003170.585 -344004.148 10 0 60963 45900.00000 0 24827007.876 -5099332.442 2857538.839 10 0 60963 46800.00000 0 24268377.329 -5069798.052 6003556.598 10 0 60963 47700.00000 0 23357398.642 -4866876.354 9032956.958 10 0 60963 48600.00000 0 22133503.263 -4449953.355 11886958.799 10 0 60963 49500.00000 0 20645589.685 -3787456.117 14510230.161 10 0 60963 50400.00000 0 18949980.593 -2858435.047 16851955.490 10 0 60963 51300.00000 0 17108091.842 -1653697.838 18866811.838 10 0 60963 52200.00000 0 15183911.291 -176447.398 20515835.988 10 0 60963 53100.00000 0 13241392.818 1557602.993 21767166.811 10 0 60963 54000.00000 0 11341873.818 3520642.368 22596649.791 10 0 60963 54900.00000 0 9541622.880 5673685.784 22988293.337 10 0 60963 55800.00000 0 7889618.565 7967971.290 22934569.211 10 0 60963 56700.00000 0 6425650.240 10346773.040 22436552.223 10 0 60963 57600.00000 0 5178818.461 12747556.461 21503897.026 10 0 60963 58500.00000 0 4166495.877 15104387.390 20154652.663 10 0 60963 59400.00000 0 3393790.610 17350496.642 18414918.163 10 0 60963 60300.00000 0 2853533.491 19420894.970 16318345.216 10 0 60963 61200.00000 0 2526788.975 21254930.992 13905496.600 10 0 60963 62100.00000 0 2383867.966 22798686.695 11223071.675 10 0 60963 63000.00000 0 2385799.981 24007111.351 8323012.700 10 0 60963 63900.00000 0 2486202.875 24845805.156 5261508.225 10 0 60963 64800.00000 0 2633471.598 25292377.974 2097911.907 10 0 60963 65700.00000 0 2773193.841 25337325.871 -1106402.977 10 0 60963 66600.00000 0 2850690.554 24984388.022 -4289231.453 10 0 60963 67500.00000 0 2813573.658 24250368.109 -7388744.251 10 0 60963 68400.00000 0 2614212.228 23164426.899 -10344691.037 10 0 60963 69300.00000 0 2212001.845 21766874.765 -13099575.676 10 0 60963 70200.00000 0 1575339.943 20107514.183 -15599780.129 10 0 60963 71100.00000 0 683222.072 18243601.186 -17796614.508 10 0 60963 72000.00000 0 -473610.114 16237510.952 -19647272.228 10 0 60963 72900.00000 0 -1892019.481 14154205.314 -21115671.077 10 0 60963 73800.00000 0 -3556351.963 12058608.351 -22173163.341 10 0 60963 74700.00000 0 -5438850.021 10013000.153 -22799100.671 10 0 60963 75600.00000 0 -7500585.361 8074538.026 -22981242.356 10 0 60963 76500.00000 0 -9692873.302 6293009.005 -22715998.727 10 0 60963 77400.00000 0 -11959110.648 4708907.773 -22008504.657 10 0 60963 78300.00000 0 -14236960.975 3351920.241 -20872521.496 10 0 60963 79200.00000 0 -16460796.372 2239875.887 -19330169.145 10 0 60963 80100.00000 0 -18564293.607 1378212.084 -17411493.358 10 0 60963 81000.00000 0 -20483076.013 759971.911 -15153876.696 10 0 60963 81900.00000 0 -22157290.253 366334.278 -12601304.714 10 0 60963 82800.00000 0 -23534009.686 167652.551 -9803502.008 10 0 60963 83700.00000 0 -24569363.338 124956.263 -6814955.472 10 0 60963 84600.00000 0 -25230301.103 191850.742 -3693844.465 10 0 60963 85500.00000 0 -25495921.167 316732.633 -500899.624 10 0 60964 0.00000 0 -25358304.426 445225.970 2701786.257 10 0 60964 900.00000 0 -24822821.399 522734.289 5851972.950 10 0 60964 1800.00000 0 -23907900.011 496999.423 8888484.336 10 0 60964 2700.00000 0 -22644264.917 320558.092 11752398.423 10 0 60964 3600.00000 0 -21073681.535 -47008.314 14388188.146 10 0 60964 4500.00000 0 -19247258.578 -637125.931 16744792.617 10 0 60964 5400.00000 0 -17223380.990 -1470664.785 18776598.279 10 0 60964 6300.00000 0 -15065360.230 -2556825.023 20444311.795 10 0 60964 7200.00000 0 -12838900.100 -3892519.731 21715708.890 10 0 60964 8100.00000 0 -10609483.397 -5462280.179 22566245.923 10 0 60964 9000.00000 0 -8439787.351 -7238687.741 22979523.682 10 0 60964 9900.00000 0 -6387234.177 -9183314.874 22947595.622 10 0 60964 10800.00000 0 -4501777.069 -11248136.777 22471115.498 10 0 60964 11700.00000 0 -2824011.989 -13377356.000 21559322.162 10 0 60964 12600.00000 0 -1383692.130 -15509565.367 20229861.964 10 0 60964 13500.00000 0 -198705.303 -17580160.663 18508451.976 10 0 60964 14400.00000 0 725444.486 -19523904.153 16428389.895 10 0 60964 15300.00000 0 1395630.636 -21277533.509 14029919.219 10 0 60964 16200.00000 0 1830573.685 -22782308.477 11359460.829 10 0 60964 17100.00000 0 2059809.812 -23986389.887 8468724.691 10 0 60964 18000.00000 0 2122201.530 -24846951.952 5413717.773 10 0 60964 18900.00000 0 2064053.151 -25331939.411 2253666.448 10 0 60964 19800.00000 0 1936910.392 -25421395.613 -950126.426 10 0 60964 20700.00000 0 1795136.933 -25108304.912 -4135467.942 10 0 60964 21600.00000 0 1693370.490 -24398913.066 -7240482.178 10 0 60964 22500.00000 0 1683966.401 -23312511.095 -10204814.214 10 0 60964 23400.00000 0 1814537.548 -21880690.491 -12970807.279 10 0 60964 24300.00000 0 2125695.666 -20146099.991 -15484629.633 10 0 60964 25200.00000 0 2649090.842 -18160755.119 -17697328.648 10 0 60964 26100.00000 0 3405833.574 -15983970.728 -19565790.948 10 0 60964 27000.00000 0 4405367.683 -13680002.684 -21053589.343 10 0 60964 27900.00000 0 5644843.385 -11315497.187 -22131699.576 10 0 60964 28800.00000 0 7109018.676 -8956854.334 -22779072.488 10 0 60964 29700.00000 0 8770694.842 -6667616.190 -22983050.081 10 0 60964 30600.00000 0 10591669.289 -4505988.484 -22739617.089 10 0 60964 31500.00000 0 12524166.886 -2522599.515 -22053482.843 10 0 60964 32400.00000 0 14512690.714 -758589.720 -20937991.614 10 0 60964 33300.00000 0 16496215.205 755888.598 -19414862.936 10 0 60964 34200.00000 0 18410629.956 2002699.191 -17513766.872 10 0 60964 35100.00000 0 20191331.745 2976235.344 -15271742.426 10 0 60964 36000.00000 0 21775855.752 3683398.547 -12732470.563 10 0 60964 36900.00000 0 23106435.181 4143044.759 -9945416.309 10 0 60964 37800.00000 0 24132381.385 4384923.280 -6964857.157 10 0 60964 38700.00000 0 24812184.162 4448154.828 -3848817.360 10 0 60964 39600.00000 0 25115243.769 4379314.956 -657929.761 10 0 60964 40500.00000 0 25023161.913 4230205.651 2545751.750 10 0 60964 41400.00000 0 24530537.779 4055411.034 5699965.164 10 0 60964 42300.00000 0 23645236.248 3909741.983 8743454.208 10 0 60964 43200.00000 0 22388117.835 3845678.871 11617158.959 10 0 60964 44100.00000 0 20792242.607 3910921.269 14265359.850 10 0 60964 45000.00000 0 18901582.345 4146148.477 16636752.877 10 0 60964 45900.00000 0 16769295.649 4583085.459 18685435.690 10 0 60964 46800.00000 0 14455638.516 5242955.483 20371786.247 10 0 60964 47700.00000 0 12025597.761 6135384.302 21663218.129 10 0 60964 48600.00000 0 9546345.557 7257801.644 22534799.166 10 0 60964 49500.00000 0 7084620.233 8595365.025 22969722.719 10 0 60964 50400.00000 0 4704141.097 10121409.244 22959623.694 10 0 60964 51300.00000 0 2463163.144 11798403.237 22504734.130 10 0 60964 52200.00000 0 412271.501 13579375.187 21613875.974 10 0 60964 53100.00000 0 -1407494.535 15409747.491 20304291.362 10 0 60964 54000.00000 0 -2966111.617 17229506.395 18601313.501 10 0 60964 54900.00000 0 -4245576.972 18975617.189 16537883.861 10 0 60964 55800.00000 0 -5240406.940 20584585.538 14153924.152 10 0 60964 56700.00000 0 -5957609.527 21995059.166 11495574.096 10 0 60964 57600.00000 0 -6416132.766 23150362.049 8614308.558 10 0 60964 58500.00000 0 -6645812.293 24000855.481 5565950.043 10 0 60964 59400.00000 0 -6685862.561 24506027.362 2409594.750 10 0 60964 60300.00000 0 -6582975.117 24636221.585 -793527.730 10 0 60964 61200.00000 0 -6389104.073 24373934.067 -3981239.338 10 0 60964 62100.00000 0 -6159032.432 23714620.098 -7091620.145 10 0 60964 63000.00000 0 -5947822.338 22666977.624 -10064213.088 10 0 60964 63900.00000 0 -5808257.544 21252693.278 -12841202.970 10 0 60964 64800.00000 0 -5788387.060 19505660.440 -15368546.287 10 0 60964 65700.00000 0 -5929274.789 17470700.810 -17597029.321 10 0 60964 66600.00000 0 -6263051.542 15201842.034 -19483233.260 10 0 60964 67500.00000 0 -6811353.096 12760222.719 -20990386.997 10 0 60964 68400.00000 0 -7584211.722 10211711.856 -22089090.537 10 0 60964 69300.00000 0 -8579449.446 7624341.830 -22757894.421 10 0 60964 70200.00000 0 -9782600.071 5065662.018 -22983723.591 10 0 60964 71100.00000 0 -11167364.599 2600123.320 -22762137.080 10 0 60964 72000.00000 0 -12696582.037 286602.723 -22097418.214 10 0 60964 72900.00000 0 -14323675.692 -1823828.998 -21002493.323 10 0 60964 73800.00000 0 -15994514.803 -3689803.509 -19498680.315 10 0 60964 74700.00000 0 -17649613.571 -5281136.370 -17615271.899 10 0 60964 75600.00000 0 -19226575.227 -6579832.534 -15388961.511 10 0 60964 76500.00000 0 -20662678.159 -7580574.847 -12863123.229 10 0 60964 77400.00000 0 -21897494.936 -8290676.428 -10086960.001 10 0 60964 78300.00000 0 -22875433.515 -8729500.565 -7114537.257 10 0 60964 79200.00000 0 -23548093.189 -8927374.401 -4003721.397 10 0 60964 80100.00000 0 -23876335.648 -8924044.139 -815044.681 10 0 60964 81000.00000 0 -23831983.726 -8766738.964 2389480.431 10 0 60964 81900.00000 0 -23399076.340 -8507927.298 5547573.540 10 0 60964 82800.00000 0 -22574627.019 -8202861.903 8597900.700 10 0 60964 83700.00000 0 -21368854.650 -7907018.906 11481266.758 10 0 60964 84600.00000 0 -19804877.343 -7673539.923 14141762.199 10 0 60964 85500.00000 0 -17917882.921 -7550785.854 16527842.254 99